�������C�����ː����j�^�v���󋵏��
Date,Time,Cs137(Bq/L),Cs134(Bq/L),�S��(Bq/L)
2019/05/09,00:00,0.23,ND,15
2019/05/09,00:10,0.23,ND,17
2019/05/09,00:20,0.23,ND,16
2019/05/09,00:30,0.21,ND,14
2019/05/09,00:40,0.22,ND,17
2019/05/09,00:50,0.22,ND,16
2019/05/09,01:00,0.24,ND,17
2019/05/09,01:10,0.23,ND,17
2019/05/09,01:20,0.23,ND,20
2019/05/09,01:30,0.22,ND,21
2019/05/09,01:40,0.18,ND,18
2019/05/09,01:50,0.15,ND,18
2019/05/09,02:00,0.15,ND,16
2019/05/09,02:10,0.14,ND,16
2019/05/09,02:20,0.14,ND,14
2019/05/09,02:30,0.14,ND,16
2019/05/09,02:40,0.13,ND,15
2019/05/09,02:50,0.12,ND,15
2019/05/09,03:00,0.10,ND,14
2019/05/09,03:10,0.11,ND,16
2019/05/09,03:20,0.079,ND,16
2019/05/09,03:30,0.057,ND,16
2019/05/09,03:40,0.060,ND,16
2019/05/09,03:50,0.076,ND,16
2019/05/09,04:00,0.092,ND,15
2019/05/09,04:10,0.085,ND,14
2019/05/09,04:20,0.088,ND,13
2019/05/09,04:30,0.11,ND,14
2019/05/09,04:40,0.11,ND,14
2019/05/09,04:50,0.096,ND,16
2019/05/09,05:00,0.076,ND,16
2019/05/09,05:10,0.054,ND,14
2019/05/09,05:20,0.052,ND,15
2019/05/09,05:30,ND,ND,12
2019/05/09,05:40,ND,ND,13
2019/05/09,05:50,ND,ND,14
2019/05/09,06:00,ND,ND,16
2019/05/09,06:10,0.056,ND,13
2019/05/09,06:20,0.050,ND,14
2019/05/09,06:30,ND,ND,13
2019/05/09,06:40,0.048,ND,12
2019/05/09,06:50,ND,ND,11
2019/05/09,07:00,0.065,ND,10
2019/05/09,07:10,0.065,ND,11
2019/05/09,07:20,0.090,ND,10
2019/05/09,07:30,0.10,ND,14
2019/05/09,07:40,0.12,ND,13
2019/05/09,07:50,0.12,ND,16
2019/05/09,08:00,0.12,ND,16
2019/05/09,08:10,0.12,ND,20
2019/05/09,08:20,0.11,ND,20
2019/05/09,08:30,0.10,ND,19
2019/05/09,08:40,0.12,ND,22
2019/05/09,08:50,0.13,ND,17
2019/05/09,09:00,0.14,ND,17
2019/05/09,09:10,0.16,ND,14
2019/05/09,09:20,0.18,ND,14
2019/05/09,09:30,0.19,ND,12
2019/05/09,09:40,0.19,ND,10
2019/05/09,09:50,0.20,ND,11
2019/05/09,10:00,0.19,ND,9.3
2019/05/09,10:10,0.18,ND,ND
2019/05/09,10:20,0.17,ND,9.2
2019/05/09,10:30,0.17,ND,12
2019/05/09,10:40,0.16,ND,10
2019/05/09,10:50,0.17,ND,13
2019/05/09,11:00,0.17,ND,12
2019/05/09,11:10,0.17,ND,15
2019/05/09,11:20,0.18,ND,13
2019/05/09,11:30,0.17,ND,13
2019/05/09,11:40,0.18,ND,14
2019/05/09,11:50,0.17,ND,13
2019/05/09,12:00,0.17,ND,16
2019/05/09,12:10,0.18,ND,16
2019/05/09,12:20,0.17,ND,15
2019/05/09,12:30,0.17,ND,10
2019/05/09,12:40,0.14,ND,13
2019/05/09,12:50,0.14,ND,10
2019/05/09,13:00,0.12,ND,9.0
2019/05/09,13:10,0.070,ND,9.3
2019/05/09,13:20,0.056,ND,10
2019/05/09,13:30,ND,ND,15
2019/05/09,13:40,ND,ND,12
2019/05/09,13:50,ND,ND,15
2019/05/09,14:00,ND,ND,15
2019/05/09,14:10,ND,ND,14
2019/05/09,14:20,0.050,ND,15
2019/05/09,14:30,ND,ND,12
2019/05/09,14:40,ND,ND,12
2019/05/09,14:50,ND,ND,13
2019/05/09,15:00,ND,ND,13
2019/05/09,15:10,ND,ND,16
2019/05/09,15:20,ND,ND,18
2019/05/09,15:30,ND,ND,19
2019/05/09,15:40,ND,ND,20
2019/05/09,15:50,ND,ND,18
2019/05/09,16:00,ND,ND,18
2019/05/09,16:10,ND,ND,16
2019/05/09,16:20,ND,ND,11
2019/05/09,16:30,ND,ND,10
2019/05/09,16:40,ND,ND,9.9
2019/05/09,16:50,ND,ND,11
2019/05/09,17:00,ND,ND,11
2019/05/09,17:10,ND,ND,11
2019/05/09,17:20,ND,ND,9.9
2019/05/09,17:30,ND,ND,11
2019/05/09,17:40,ND,ND,12
2019/05/09,17:50,ND,ND,12
2019/05/09,18:00,ND,ND,12
2019/05/09,18:10,ND,ND,13
2019/05/09,18:20,ND,ND,14
2019/05/09,18:30,ND,ND,14
2019/05/09,18:40,ND,ND,11
2019/05/09,18:50,ND,ND,10
2019/05/09,19:00,ND,ND,9.0
2019/05/09,19:10,ND,ND,10
2019/05/09,19:20,ND,ND,14
2019/05/09,19:30,ND,ND,14
2019/05/09,19:40,0.050,ND,17
2019/05/09,19:50,0.071,ND,18
2019/05/09,20:00,0.079,ND,19
2019/05/09,20:10,0.092,ND,18
2019/05/09,20:20,0.090,ND,15
2019/05/09,20:30,0.093,ND,14
2019/05/09,20:40,0.098,ND,14
2019/05/09,20:50,0.090,ND,10
2019/05/09,21:00,0.10,ND,11
2019/05/09,21:10,0.12,ND,9.7
2019/05/09,21:20,0.12,ND,11
2019/05/09,21:30,0.11,ND,12
2019/05/09,21:40,0.12,ND,ND
2019/05/09,21:50,0.12,ND,14
2019/05/09,22:00,0.11,ND,12
2019/05/09,22:10,0.10,ND,14
2019/05/09,22:20,0.14,ND,14
2019/05/09,22:30,0.16,ND,15
2019/05/09,22:40,0.19,ND,17
2019/05/09,22:50,0.22,ND,15
2019/05/09,23:00,0.27,ND,14
2019/05/09,23:10,0.30,ND,16
2019/05/09,23:20,0.32,ND,14
2019/05/09,23:30,0.34,ND,12
2019/05/09,23:40,0.34,ND,9.5
2019/05/09,23:50,0.33,ND,10
